Airfield :
LOGIN :

Register | Disclaimer

   EN    FR    IT 

 










Legend :    VFR   Marginal VFR   IFR   Intensive IFR   Very Intensive IFR
Visi :
Ceiling :
>= 8 km
>= 3000ft
5 to 8 km
1000 to 3000 ft
1500m to 5 km
500 to 1000 ft
800 to 1500m
200 to 500 ft
< 800m
< 200 ft
Symbols :   Thunderstorms  Fog  Heavy snow  Heavy precipitations  Wind > 20 kt
SIGMETs :     Misc.  Thunderstorms  Icing  Turbulence  Mountain Waves  Volcanic Ashes







- Airport Elevation : 681 ft
- IATA code : LBA
- Download approach charts


EGNM - Leeds Bradford

CURRENT METAR :
  • 180650Z 29008KT CAVOK 03/01 Q1026

EXPIRED METARs :
  • 180620Z 29008KT CAVOK 02/00 Q1026
  • 180550Z 28007KT CAVOK 01/00 Q1025
  • 180520Z 29009KT CAVOK 02/M00 Q1025
  • 180450Z 30009KT CAVOK 02/00 Q1024
  • 180420Z 31011KT CAVOK 02/00 Q1024

TAF TAF EGNM
Valid from the 18 at 06:00 until the 19 at 06:00 UTC


180500Z 1806/1906 33005KT CAVOK
PROB30
TEMPO 1806/1810 7000
PROB30
TEMPO 1816/1906 6000 BKN006
ATIS : +44 113 250 9696 (x2489)
No reported NOTAMs for that airfield.



MET'MAP, your aeronautical weather chart ! - Copyright ORBIFLY December 2007 - Disclaimer

ORBIFLY MET'MAP TEAM :

Programming & Development : Alexandra Zaïnal
Concept & Development : Baudouin d'Aumeries
Co-Development & Prog : Marc-Olivier Méhu
Technical & hardware support : Manuel Goepfert

Contact : metmap@orbifly.com




SOURCES & CREDITS :

   NOAA